FW3795 Weather Reports


Display with metric or nautical units.
time (UTC)temp
F
wind
direction
speed
MPH
gust
MPH
rain 1hr
in
rain 24hr
in
rain mn
in
humidity
%
barometer
mb
20260504184542 71 274 12.0 19.0 0.00 0.00 0.00 35 1005.2
20260504183039 71 229 12.0 24.0 0.00 0.00 0.00 35 1005.4
20260504181537 71 262 13.0 21.0 0.00 0.00 0.00 35 1005.4
20260504180036 70 262 11.0 21.0 0.00 0.00 0.00 37 1005.6
20260504174531 69 247 10.0 25.0 0.00 0.00 0.00 39 1005.6
20260504173029 68 215 12.0 19.0 0.00 0.00 0.00 40 1005.7
20260504171526 68 245 9.0 18.0 0.00 0.00 0.00 41 1005.9
20260504081532 49 165 5.0 9.0 0.00 0.00 0.00 55 1008.7
20260504050007 49 185 0.0 0.0 0.00 0.00 0.00 56 1009.5
20260504044504 49 185 1.0 6.0 0.00 0.00 0.00 54 1009.4
20260504043002 49 243 1.0 4.0 0.00 0.00 0.00 56 1009.7
20260504041602 49 238 1.0 3.0 0.00 0.00 0.00 55 1009.7
20260504040055 50 244 0.0 0.0 0.00 0.00 0.00 54 1009.8
20260504034554 50 244 0.0 2.0 0.00 0.00 0.00 52 1009.7
20260504033054 51 244 1.0 3.0 0.00 0.00 0.00 50 1009.8
20260504031554 52 244 0.0 1.0 0.00 0.00 0.00 47 1009.8
20260504030054 53 244 1.0 4.0 0.00 0.00 0.00 46 1009.9
20260504024608 53 220 3.0 7.0 0.00 0.00 0.00 44 1010.0
20260504023053 53 209 2.0 4.0 0.00 0.00 0.00 43 1010.3
20260504021552 54 221 3.0 7.0 0.00 0.00 0.00 42 1010.3
20260504020051 54 242 1.0 5.0 0.00 0.00 0.00 42 1010.4
20260504014556 54 209 1.0 7.0 0.00 0.00 0.00 41 1010.6
20260504013054 55 228 1.0 9.0 0.00 0.00 0.00 40 1010.6
20260504011551 55 250 4.0 11.0 0.00 0.00 0.00 38 1010.5
20260504010049 55 221 6.0 12.0 0.00 0.00 0.00 38 1010.4
20260504004549 55 264 12.0 20.0 0.00 0.00 0.00 37 1010.3
20260504003053 55 257 7.0 23.0 0.00 0.00 0.00 37 1010.2
20260504001549 56 272 13.0 24.0 0.00 0.00 0.00 35 1010.3
20260504000113 56 278 18.0 24.0 0.00 0.00 0.00 34 1010.1
20260503234553 57 305 18.0 32.0 0.00 0.00 0.00 34 1009.9
20260503233045 57 303 18.0 30.0 0.00 0.00 0.00 34 1009.7
20260503231545 57 248 8.0 18.0 0.00 0.00 0.00 34 1009.8
20260503230050 57 268 11.0 21.0 0.00 0.00 0.00 34 1009.7
20260503224544 57 262 18.0 25.0 0.00 0.00 0.00 34 1009.7
20260503223042 57 282 15.0 29.0 0.00 0.00 0.00 34 1009.6
20260503221549 57 300 10.0 14.0 0.00 0.00 0.00 37 1009.4
20260503220041 57 282 10.0 14.0 0.00 0.00 0.00 38 1009.4
20260503214543 56 266 14.0 19.0 0.00 0.00 0.00 37 1009.5
20260503213040 56 238 9.0 20.0 0.00 0.00 0.00 37 1009.6
20260503211539 56 249 7.0 17.0 0.00 0.00 0.00 39 1009.6
20260503210037 57 229 7.0 15.0 0.00 0.00 0.00 38 1009.7
20260503204533 56 246 12.0 20.0 0.00 0.00 0.00 39 1009.8
20260503203040 55 205 6.0 12.0 0.00 0.00 0.00 39 1010.1
20260503201534 54 273 8.0 14.0 0.00 0.00 0.00 40 1010.2
20260503200027 54 267 8.0 18.0 0.00 0.00 0.00 41 1010.4
20260503194526 54 291 9.0 19.0 0.00 0.00 0.00 40 1010.5
20260503193024 53 263 11.0 21.0 0.00 0.00 0.00 40 1010.9
20260503191522 53 211 9.0 16.0 0.00 0.00 0.00 41 1011.1
20260503190020 53 290 16.0 24.0 0.00 0.00 0.00 41 1011.4